MAU457 FIMP-EGKK

Flight info

Callsign MAU457
Flight time N/A
Altitude 34000
Route NIBIS UG661 MAROF/N0499F360 UG661 DV UA401 NN UW325 SIPKI/N0493F370 UT325 POGBA/N0490F380 UT325 FL UM731 DIR UB730 IKTAV/N0486F400 UB730 DJA UM2 CSO/N0484F410 DCT CIRTA/N0484F400 DCT BUKID DCT GARPU DCT PIGOS DCT BARSO DCT OKTET DCT GIPNO DCT BULOL DCT IDAVO DCT BAGBI DCT SIZZA DCT LAULY DCT BRY DCT CLM DCT KOPOR DCT KESAX DCT KUNAV
Aircraft A359/H-SDE2E3GHIJ3J4J5LM1ORWXY/LB1D1

Departure

Time 2026-04-27 22:50
Airport Sir Seewoosagur Ramgoolam International Airport (FIMP)

Arrival

Time N/A
Airport London Gatwick Airport (EGKK)
Time Latitude Longitude Altitude Speed Heading
2026-04-27 22:17 -20.43260 57.67957 192 ft 0 kts 237°
2026-04-27 22:40 -20.43252 57.67970 210 ft 4 kts 237°
2026-04-27 22:40 -20.43238 57.67994 207 ft 4 kts 237°
2026-04-27 22:40 -20.43225 57.68015 207 ft 4 kts 243°
2026-04-27 22:41 -20.43221 57.68039 202 ft 4 kts 299°
2026-04-27 22:41 -20.43238 57.68059 207 ft 4 kts 326°
2026-04-27 22:41 -20.43261 57.68074 207 ft 3 kts 334°
2026-04-27 22:41 -20.43266 57.68076 207 ft 0 kts 335°
2026-04-27 22:44 -20.43259 57.68072 207 ft 1 kts 334°
2026-04-27 22:45 -20.43242 57.68070 201 ft 3 kts 358°
2026-04-27 22:45 -20.43232 57.68072 207 ft 1 kts
2026-04-27 22:45 -20.43209 57.68096 207 ft 7 kts 64°
2026-04-27 22:45 -20.43210 57.68146 198 ft 7 kts 107°
2026-04-27 22:46 -20.43236 57.68204 205 ft 11 kts 116°
2026-04-27 22:46 -20.43279 57.68299 195 ft 17 kts 113°
2026-04-27 22:46 -20.43263 57.68406 197 ft 13 kts 78°
2026-04-27 22:46 -20.43286 57.68498 196 ft 13 kts 116°
2026-04-27 22:47 -20.43330 57.68589 183 ft 14 kts 117°
2026-04-27 22:47 -20.43379 57.68688 182 ft 18 kts 117°
2026-04-27 22:47 -20.43461 57.68859 179 ft 34 kts 117°
2026-04-27 22:47 -20.43577 57.69100 170 ft 38 kts 117°
2026-04-27 22:48 -20.43692 57.69338 152 ft 20 kts 117°
2026-04-27 22:48 -20.43765 57.69491 137 ft 26 kts 117°
2026-04-27 22:48 -20.43843 57.69653 117 ft 4 kts 113°
2026-04-27 22:48 -20.43846 57.69685 116 ft 7 kts 78°
2026-04-27 22:49 -20.43801 57.69738 116 ft 11 kts 33°
2026-04-27 22:49 -20.43724 57.69763 120 ft 12 kts 350°
2026-04-27 22:49 -20.43677 57.69706 121 ft 10 kts 296°
2026-04-27 22:49 -20.43615 57.69580 128 ft 44 kts 297°
2026-04-27 22:50 -20.43377 57.69089 158 ft 104 kts 297°
2026-04-27 22:50 -20.42961 57.68230 200 ft 156 kts 297°
2026-04-27 22:50 -20.42409 57.67072 482 ft 177 kts 299°
2026-04-27 22:50 -20.41876 57.65896 1143 ft 179 kts 298°
2026-04-27 22:51 -20.41297 57.64635 1598 ft 189 kts 298°
2026-04-27 22:51 -20.40654 57.63466 2120 ft 181 kts 307°
2026-04-27 22:51 -20.39913 57.62389 2494 ft 179 kts 312°
2026-04-27 22:51 -20.39143 57.61354 2869 ft 179 kts 313°
2026-04-27 22:52 -20.38369 57.60308 3183 ft 180 kts 312°
2026-04-27 22:52 -20.37608 57.59238 3519 ft 182 kts 310°
2026-04-27 22:52 -20.36864 57.58147 3855 ft 182 kts 309°
2026-04-27 22:52 -20.36132 57.57038 4182 ft 183 kts 309°
2026-04-27 22:53 -20.35386 57.55888 4380 ft 194 kts 308°
2026-04-27 22:53 -20.34597 57.54667 4549 ft 207 kts 308°
2026-04-27 22:53 -20.33756 57.53363 4737 ft 219 kts 307°
2026-04-27 22:53 -20.32864 57.51978 4876 ft 236 kts 307°
2026-04-27 22:54 -20.31907 57.50494 5061 ft 250 kts 307°
2026-04-27 22:54 -20.30896 57.48925 5247 ft 264 kts 307°
2026-04-27 22:54 -20.29838 57.47282 5576 ft 273 kts 307°
2026-04-27 22:54 -20.28756 57.45604 6037 ft 277 kts 307°
2026-04-27 22:55 -20.27678 57.43934 6525 ft 279 kts 307°
2026-04-27 22:55 -20.26576 57.42227 7049 ft 281 kts 307°
2026-04-27 22:55 -20.25461 57.40500 7549 ft 284 kts 307°
2026-04-27 22:55 -20.24338 57.38760 8073 ft 286 kts 306°
2026-04-27 22:56 -20.23205 57.37009 8630 ft 288 kts 306°
2026-04-27 22:56 -20.22060 57.35238 9176 ft 291 kts 306°
2026-04-27 22:56 -20.20905 57.33455 9742 ft 293 kts 306°
2026-04-27 22:56 -20.19738 57.31655 10188 ft 300 kts 306°
2026-04-27 22:57 -20.18526 57.29788 10415 ft 314 kts 306°